Regional Weather Roundup
Issued by NWS Sterling, VA

Home | Current Version | Previous Version | Text Only | Print | Product List | Glossary On
Versions: 1 2 3 4 5 6 7 8 9 10 11 12 13 14 15 16 17 18 19 20 21 22 23 24 25 26 27 28 29 30 31 32 33 34 35 36 37 38 39 40 41 42 43 44 45 46 47 48 49 50
000
ASUS41 KLWX 190610
RWRLWX

REGIONAL WEATHER ROUNDUP
NATIONAL WEATHER SERVICE BALTIMORE MD/WASHINGTON DC
100 AM EST FRI DEC 19 2014

Note: "FAIR" indicates few or no clouds below 12,000 feet
with no significant weather and/or obstructions to visibility.
 TC=TEMPERATURE CELSIUS

 * =Non NWS site. Station does not report precipitation (e.g. rain,
    snow, etc.), thunder, or fog.

DCZ001-MDZ009-015-VAZ040>042-051-053>054-190700-
WASHINGTON METRO

CITY           SKY/WX    TMP DP  RH WIND       PRES   REMARKS
WASHINGTON NAT CLOUDY    38  21  50 NW10      30.13S
DULLES         MOCLDY    32  23  69 W6        30.11F
ANDREWS AFB    CLOUDY    34  23  64 NW9       30.10S WCI  26
FT BELVOIR     CLOUDY    35  23  61 NW7       30.13S
QUANTICO       CLOUDY    36  22  56 N12       30.13F WCI  28
COLLEGE PARK*  CLOUDY    36  25  64 W6        30.11S
LEESBURG*      CLOUDY    34  27  75 NW7       30.12S
MANASSAS*      CLOUDY    34  25  69 N8        30.12F WCI  27
GAITHERSBURG*  CLOUDY    32  21  64 W5        30.12S

$$

MDZ006>007-011-014-190700-
BALTIMORE METRO

CITY           SKY/WX    TMP DP  RH WIND       PRES   REMARKS
BWI AIRPORT    CLOUDY    34  24  67 W6        30.09S
MD SCIENCE CTR   N/A     36  23  59 MISG      30.09F
MARTIN STATE   CLOUDY    36  27  69 W6        30.10S
ANNAPOLIS      CLOUDY    35  23  61 W7        30.10S
FORT MEADE*    CLOUDY    34  25  69 W6        30.12S

$$

MDZ012-015-019>023-190700-
MARYLAND EASTERN SHORE

CITY           SKY/WX    TMP DP  RH WIND       PRES   REMARKS
OCEAN CITY     CLOUDY    34  25  69 NW3       30.08S
SALISBURY      CLOUDY    36  26  67 W5        30.08S
BAY BRIDGE AP*   N/A     36  25  64 W10       30.10S WCI  28
CAMBRIDGE*     PTCLDY    37  27  65 NW10      30.09S
EASTON*        PTCLDY    37  28  69 NW8       30.12S

$$

MDZ017>025-190700-
SOUTHERN MARYLAND

CITY           SKY/WX    TMP DP  RH WIND       PRES   REMARKS
PATUXENT RIVER CLOUDY    36  23  59 NW13      30.10S WCI  27
ST INIGOES     CLOUDY    36  21  54 NW6       30.10S
LEONARDTOWN*   CLOUDY    34  23  64 NW3       30.12S

$$

MDZ003>005-190700-
NORTH CENTRAL MARYLAND

CITY           SKY/WX    TMP DP  RH WIND       PRES   REMARKS
FREDERICK*     CLOUDY    34  21  60 W7        30.13S
HAGERSTOWN APT CLOUDY    33  23  66 W9        30.08F WCI  25
WESTMINSTER*   CLOUDY    32  25  74 W8        30.06S WCI  25

$$

MDZ501>502-190700-
WESTERN MARYLAND

CITY           SKY/WX    TMP DP  RH WIND       PRES   REMARKS
OAKLAND*       CLOUDY    21 N/A N/A W10G18    30.02S FOG     WCI  10
CUMBERLAND*    CLOUDY    32  21  64 CALM      30.16S

$$

VAZ025>031-190700-
SHENANDOAH VALLEY

CITY           SKY/WX    TMP DP  RH WIND       PRES   REMARKS
WINCHESTER*    CLOUDY    34  19  55 NW6       30.10F
FRONT ROYAL*   CLOUDY    32  23  69 CALM      30.10S
LURAY*         CLOUDY    34  28  80 CALM      30.09F
NEW MARKET*    CLOUDY    32  23  69 NE3       30.09F
STAUNTON*      CLOUDY    33  25  72 CALM      30.10S
WAYNESBORO*    CLOUDY    32  24  72 CALM      30.07S

$$

WVZ021-048>050-054>055-190700-
EASTERN WEST VIRGINIA PANHANDLE

CITY           SKY/WX    TMP DP  RH WIND       PRES   REMARKS
MARTINSBURG    CLOUDY    33  19  56 W7        30.11S
PETERSBURG*    CLOUDY    32  22  69 CALM      30.12S

$$

VAZ036>039-050-190700-
CENTRAL FOOTHILLS

CITY           SKY/WX    TMP DP  RH WIND       PRES   REMARKS
CHARLOTTESVILL CLOUDY    34  23  64 CALM      30.10S
CULPEPER*      CLOUDY    36  25  64 N8        30.11F
ORANGE*        CLOUDY    34  27  75 CALM      30.12S
GORDONSVILLE*  CLOUDY    33  24  70 CALM      30.10S
WARRENTON*     CLOUDY    35  28  78 N7        30.10F

$$

VAZ055>057-190700-
NORTH AND CENTRAL PIEDMONT

CITY           SKY/WX    TMP DP  RH WIND       PRES   REMARKS
FREDERICKSBRG* CLOUDY    37  25  63 N6        30.11F
STAFFORD*      CLOUDY    34  22  61 N5        30.15F

$$

NCZ024-NYZ072-PAZ021-071-VAZ022-071-190700-
OTHER REGIONAL OBSERVATIONS

CITY           SKY/WX    TMP DP  RH WIND       PRES   REMARKS
NEW YORK CITY  CLOUDY    38  25  59 VRB7      29.98F
PHILADELPHIA   CLOUDY    38  25  59 W12       30.04F
PITTSBURGH     CLOUDY    27  22  81 W10       30.14S WCI  17
ROANOKE        MOCLDY    38  18  44 NW12      30.12S
RICHMOND       CLOUDY    36  24  62 CALM      30.12S
RALEIGH        MOCLDY    37  30  75 CALM      30.11S

$$

ANZ530>537-190700-
MARINE OBSERVATIONS

STATION/POSITION TIME  TEMP    WIND        PRES
                       AIR SEA DIR/SP/G
                 (UTC) (F)     (DEG/KT/KT) (MB)
THOMAS PT LIGHT  0600   35 42  290/ 13/ 14 1020.2F
BALT KEY BRIDGE  0600   36     270/ 10/ 11 1018.7F
COVE POINT       0600   35     340/ 12/ 15 1019.1S
LEWISETTA        0600   37 43  330/  7/ 11 1019.4S
SOLOMONS ISLAND  0600      44                N/A
PINEY POINT      0600          350/ 13/ 15   N/A

$$



USA.gov is the U.S. government's official web portal to all federal, state and local government web resources and services.